[[{"header":{"parameterUnit":"m.s-1","parameterCategory":1,"la1":30.2991,"la2":30.254,"lo1":-89.0895,"lo2":-89.0444,"dy":0.0017,"dx":0.0017,"nx":28,"ny":28,"refTime":"2025-03-23T09:00:00:Z","depth":0,"parameterNumber":2,"parameterNumberName":"U-component_of_WINDS"},"data":[0,0,0,0,0,0,0,0,0,0,0,0,0,0,0,0,0,0,0,0,0,0,0,0,0,0,0,0,0,0,0,0,0,0,0,0,0,0,0,0,0,0,0,0,0,0,0,0,0,0,0,0,0,0,0,0,0,0,-1.3703,-1.3703,0,-1.3675,-1.3675,-1.3675,-1.3647,-1.3646,-1.3646,-1.3645,-1.3617,-1.3617,-1.3616,0,0,0,0,0,0,0,0,0,0,0,0,0,-1.3731,-1.3731,-1.3703,-1.3703,-1.3702,-1.3675,-1.3675,-1.3674,-1.3647,-1.3646,-1.3646,-1.3645,-1.3617,-1.3617,-1.3616,0,0,0,0,0,0,0,0,0,0,0,0,0,-1.3713,-1.3731,-1.3703,-1.3685,-1.3683,-1.3675,-1.3675,-1.3674,-1.3647,-1.3646,-1.3646,-1.3645,-1.3617,-1.3617,-1.3616,-1.3624,0,0,-1.3614,-1.3614,0,0,0,0,0,0,0,0,-1.3714,-1.3712,-1.3688,-1.3686,-1.3684,-1.3664,-1.3674,-1.3657,-1.3647,-1.3661,-1.3645,-1.3645,-1.3633,-1.3631,-1.3627,-1.3622,-1.3621,-1.3614,-1.3614,-1.3614,-1.3613,0,0,0,0,0,0,0,-1.3715,-1.3713,-1.3692,-1.3688,-1.3685,-1.3678,-1.3675,-1.3671,-1.365,-1.3659,-1.3657,-1.3654,-1.3632,-1.3628,-1.3626,-1.3621,-1.3614,-1.3614,-1.3613,-1.3613,-1.362,-1.362,0,0,0,0,0,0,-1.3719,-1.3714,-1.3693,-1.3691,-1.3698,-1.3678,-1.3675,-1.3671,-1.365,-1.3647,-1.3655,-1.3653,-1.3629,-1.3627,-1.3625,-1.3632,-1.3614,-1.3613,-1.3613,-1.3619,-1.362,-1.362,0,0,0,0,0,0,-1.372,-1.3718,-1.3694,-1.3702,-1.3698,-1.3678,-1.3674,-1.3671,-1.3666,-1.3647,-1.3643,-1.3655,-1.3629,-1.3626,-1.3624,-1.3631,-1.3613,-1.3612,-1.3619,-1.3619,-1.362,-1.3646,0,0,0,0,0,0,-1.3721,-1.3718,-1.3721,-1.3702,-1.3698,-1.3694,-1.3675,-1.367,-1.3666,-1.3663,-1.3646,-1.3642,-1.3628,-1.3625,-1.3623,-1.363,-1.3612,-1.3618,-1.3619,-1.362,-1.3645,-1.3648,-1.3651,0,0,0,0,0,-1.3722,-1.373,-1.3721,-1.3719,-1.3701,-1.3694,-1.3692,-1.3675,-1.3666,-1.3669,-1.3656,-1.3643,-1.363,-1.3625,-1.3623,-1.3629,-1.3617,-1.3619,-1.362,-1.3644,-1.3647,-1.3651,0,0,0,0,0,0,-1.375,-1.3727,-1.3717,-1.3719,-1.3709,-1.3689,-1.3692,-1.368,-1.3672,-1.367,-1.365,-1.3646,-1.3646,-1.3637,-1.3632,-1.3635,-1.3622,-1.3623,-1.3641,-1.3644,-1.3647,-1.3649,-1.3611,0,0,0,0,0,-1.3756,-1.3752,-1.3732,-1.3736,-1.3731,-1.3713,-1.3709,-1.3697,-1.3685,-1.3681,-1.3668,-1.3657,-1.3651,-1.3647,-1.364,-1.3643,-1.3639,-1.3646,-1.3649,-1.3652,-1.3653,-1.3653,-1.3656,-1.3624,-1.3624,-1.3624,0,0,-1.377,-1.3756,-1.3755,-1.3741,-1.3732,-1.3728,-1.3709,-1.3706,-1.3703,-1.368,-1.3678,-1.3668,-1.3654,-1.3655,-1.3654,-1.3647,-1.366,-1.3653,-1.3656,-1.3655,-1.3655,-1.3658,-1.366,-1.3625,-1.3625,-1.3625,0,0,-1.3792,-1.3782,-1.3783,-1.3774,-1.3759,-1.3747,-1.3747,-1.3729,-1.3722,-1.3719,-1.3701,-1.3697,-1.3687,-1.3678,-1.3672,-1.3689,-1.3676,-1.3687,-1.3703,-1.3703,-1.3706,-1.3708,-1.3714,-1.3716,-1.3688,-1.3688,-1.3688,0,-1.381,-1.3804,-1.3785,-1.3783,-1.3777,-1.3756,-1.3757,-1.3749,-1.3733,-1.373,-1.3722,-1.3708,-1.3697,-1.3695,-1.3699,-1.3695,-1.3695,-1.3689,-1.3707,-1.3709,-1.3711,-1.3716,-1.3718,-1.369,-1.369,-1.3689,-1.3689,0,-1.3827,-1.3822,-1.3825,-1.381,-1.3805,-1.3804,-1.3786,-1.3782,-1.377,-1.3758,-1.3755,-1.3741,-1.3731,-1.3729,-1.3718,-1.3725,-1.3721,-1.3711,-1.3697,-1.3715,-1.372,-1.3722,-1.3692,-1.3691,-1.3691,-1.3691,0,0,-1.3867,-1.384,-1.3842,-1.3834,-1.3817,-1.3813,-1.3811,-1.38,-1.3798,-1.3787,-1.3785,-1.3776,-1.3765,-1.3759,-1.3746,-1.3747,-1.3761,-1.3735,-1.3735,-1.374,-1.3767,-1.3775,-1.3778,-1.3752,-1.3752,-1.3752,-1.3768,0,-1.3885,-1.3881,-1.3864,-1.3865,-1.386,-1.3839,-1.3838,-1.3826,-1.3815,-1.3809,-1.3796,-1.379,-1.3777,-1.3773,-1.3772,-1.3759,-1.3766,-1.3758,-1.3749,-1.3749,-1.3753,-1.378,-1.3789,-1.3805,-1.377,-1.377,-1.377,0,-1.3907,-1.3898,-1.3898,-1.3879,-1.3876,-1.3875,-1.3864,-1.3859,-1.3845,-1.3837,-1.3829,-1.3814,-1.3811,-1.3798,-1.3793,-1.3787,-1.3783,-1.3776,-1.3776,-1.3774,-1.3761,-1.378,-1.3809,-1.3812,-1.3773,-1.3773,-1.3773,0,-1.3936,-1.3923,-1.3921,-1.3915,-1.3894,-1.3893,-1.3884,-1.387,-1.3864,-1.3854,-1.385,-1.384,-1.3835,-1.3827,-1.381,-1.3802,-1.3806,-1.3792,-1.3798,-1.3799,-1.38,-1.3801,-1.383,-1.3798,-1.3798,-1.3798,-1.3798,0,-1.3959,-1.396,-1.3934,-1.3933,-1.3933,-1.3913,-1.3913,-1.3902,-1.3889,-1.3885,-1.3867,-1.3864,-1.3841,-1.3835,-1.3822,-1.3819,-1.3817,-1.3809,-1.3806,-1.3811,-1.3812,-1.3808,-1.3806,-1.3798,-1.3798,-1.3798,-1.3798,0,-1.3992,-1.3974,-1.3971,-1.395,-1.3945,-1.3946,-1.3928,-1.3926,-1.3913,-1.3908,-1.3905,-1.3885,-1.3877,-1.3859,-1.3846,-1.3837,-1.3837,-1.3831,-1.3842,-1.384,-1.3847,-1.3847,-1.3875,-1.3877,-1.3844,-1.3844,-1.3844,0,-1.4008,-1.4008,-1.3987,-1.3983,-1.3974,-1.3968,-1.3962,-1.3942,-1.3936,-1.392,-1.392,-1.391,-1.3901,-1.3889,-1.3873,-1.3863,-1.3856,-1.3866,-1.3854,-1.3859,-1.3856,-1.3856,-1.3855,-1.3869,-1.387,-1.387,-1.387,0,-1.4038,-1.4029,-1.4021,-1.401,-1.4003,-1.3993,-1.3983,-1.398,-1.3958,-1.3952,-1.3943,-1.3937,-1.3923,-1.3913,-1.39,-1.389,-1.3877,-1.3874,-1.3875,-1.388,-1.3887,-1.3883,-1.3849,-1.3874,-1.3873,-1.3873,-1.3873,-1.3873,-1.4063,-1.4061,-1.4046,-1.4037,-1.4027,-1.4017,-1.4014,-1.4,-1.3992,-1.3979,-1.3968,-1.396,-1.3945,-1.3926,-1.3917,-1.3911,-1.3904,-1.3905,-1.3906,-1.3906,-1.3908,-1.3888,-1.3908,-1.3908,-1.3908,-1.3908,-1.3908,0,-1.4092,-1.4081,-1.4073,-1.4058,-1.4051,-1.4038,-1.4025,-1.402,-1.4013,-1.4001,-1.3992,-1.3981,-1.3972,-1.3954,-1.3943,-1.3941,-1.3934,-1.3938,-1.3939,-1.3936,-1.3915,-1.3916,-1.3944,-1.3944,-1.3944,-1.3944,-1.3944,-1.3944,-1.4106,-1.4103,-1.4092,-1.4083,-1.4072,-1.4064,-1.4057,-1.4048,-1.4037,-1.4026,-1.4018,-1.4007,-1.3992,-1.3979,-1.3969,-1.3964,-1.3961,-1.3967,-1.396,-1.3941,-1.3938,-1.3935,-1.3935,-1.3967,-1.3967,-1.3982,-1.3982,-1.3982]},{"header":{"parameterUnit":"m.s-1","parameterCategory":1,"la1":30.2991,"la2":30.254,"lo1":-89.0895,"lo2":-89.0444,"dy":0.0017,"dx":0.0017,"nx":28,"ny":28,"refTime":"2025-03-23T09:00:00:Z","depth":0,"parameterNumber":3,"parameterNumberName":"V-component_of_WINDS"},"data":[0,0,0,0,0,0,0,0,0,0,0,0,0,0,0,0,0,0,0,0,0,0,0,0,0,0,0,0,0,0,0,0,0,0,0,0,0,0,0,0,0,0,0,0,0,0,0,0,0,0,0,0,0,0,0,0,0,0,2.486,2.4862,0,2.5017,2.5019,2.5021,2.501,2.5008,2.5005,2.5003,2.5162,2.5168,2.5175,0,0,0,0,0,0,0,0,0,0,0,0,0,2.4549,2.4555,2.486,2.4862,2.4864,2.5017,2.5019,2.5021,2.501,2.5007,2.5005,2.5002,2.516,2.5168,2.5175,0,0,0,0,0,0,0,0,0,0,0,0,0,2.4693,2.4557,2.486,2.4877,2.488,2.5016,2.5019,2.5022,2.5011,2.5007,2.5004,2.5001,2.5158,2.5167,2.5176,2.5305,0,0,2.5206,2.521,0,0,0,0,0,0,0,0,2.4685,2.4704,2.4873,2.4876,2.488,2.499,2.4968,2.5117,2.5012,2.4961,2.5003,2.4999,2.5108,2.5121,2.5158,2.5312,2.5319,2.5206,2.5212,2.5216,2.5219,0,0,0,0,0,0,0,2.4675,2.4697,2.4922,2.4875,2.4879,2.4876,2.4893,2.4996,2.5052,2.4965,2.4965,2.4984,2.5109,2.5149,2.5162,2.5322,2.5206,2.5215,2.5221,2.5224,2.5589,2.5593,0,0,0,0,0,0,2.4661,2.4689,2.4917,2.4927,2.4772,2.4885,2.4903,2.4958,2.5051,2.5062,2.4987,2.4983,2.5134,2.5151,2.5167,2.5324,2.5216,2.5225,2.5231,2.5585,2.559,2.5594,0,0,0,0,0,0,2.4655,2.4682,2.4911,2.4808,2.4837,2.4894,2.4956,2.4963,2.5003,2.5067,2.5077,2.5017,2.5132,2.5154,2.5271,2.533,2.523,2.5238,2.5581,2.5587,2.5592,2.5639,0,0,0,0,0,0,2.4646,2.4679,2.4729,2.4809,2.4843,2.5013,2.4959,2.4969,2.502,2.5016,2.5098,2.5108,2.5131,2.5257,2.5281,2.5341,2.5246,2.5576,2.5583,2.559,2.5633,2.5646,2.5657,0,0,0,0,0,2.4635,2.4736,2.4732,2.4759,2.4906,2.5016,2.5035,2.506,2.5025,2.5075,2.5116,2.5106,2.5319,2.5269,2.5296,2.536,2.5572,2.5581,2.559,2.5627,2.5643,2.5657,0,0,0,0,0,0,2.4661,2.4747,2.4743,2.4874,2.4938,2.5014,2.5078,2.5076,2.5151,2.5144,2.5171,2.5189,2.5307,2.5345,2.5287,2.5489,2.5441,2.5456,2.546,2.5476,2.5488,2.5477,2.5254,0,0,0,0,0,2.4682,2.4765,2.4835,2.4943,2.4975,2.5021,2.507,2.5083,2.5151,2.5177,2.5227,2.5292,2.5374,2.5427,2.5506,2.5638,2.5655,2.5695,2.5707,2.5717,2.573,2.5803,2.5821,2.5623,2.5623,2.5623,0,0,2.4726,2.4783,2.4834,2.495,2.5001,2.5085,2.5044,2.5135,2.5198,2.5191,2.5305,2.5343,2.5418,2.5543,2.5601,2.5578,2.5788,2.5729,2.5736,2.5743,2.5814,2.5832,2.5849,2.5629,2.5628,2.5627,0,0,2.485,2.4902,2.4998,2.505,2.5128,2.5158,2.5181,2.5258,2.5283,2.5398,2.5395,2.5469,2.5609,2.5662,2.5708,2.5851,2.5845,2.5876,2.5941,2.6011,2.6027,2.6041,2.6093,2.6111,2.5888,2.5888,2.5888,0,2.4896,2.5023,2.5047,2.5139,2.519,2.5188,2.5285,2.5334,2.5434,2.5469,2.5442,2.5618,2.5668,2.5806,2.5841,2.5878,2.5904,2.5867,2.6023,2.6037,2.6051,2.61,2.6119,2.5892,2.5891,2.5891,2.589,0,2.5075,2.5163,2.5231,2.5328,2.5386,2.548,2.5518,2.5574,2.5582,2.5615,2.5731,2.5791,2.5882,2.5915,2.5924,2.6054,2.6038,2.6017,2.5969,2.6072,2.6119,2.6138,2.5896,2.5895,2.5894,2.5893,0,0,2.5221,2.533,2.5354,2.5398,2.5484,2.5552,2.5646,2.5735,2.5783,2.5851,2.593,2.6049,2.603,2.6081,2.6095,2.6157,2.6267,2.6129,2.6131,2.6153,2.6415,2.6431,2.6453,2.6263,2.6267,2.627,2.6409,0,2.5354,2.5521,2.5545,2.5692,2.5773,2.5772,2.5853,2.5915,2.5947,2.6021,2.6056,2.614,2.6109,2.614,2.6201,2.6241,2.6321,2.6231,2.6337,2.634,2.6319,2.6477,2.6494,2.6623,2.6428,2.6431,2.6433,0,2.5533,2.5606,2.5761,2.5835,2.5871,2.5944,2.6027,2.6098,2.6166,2.6186,2.6243,2.625,2.6346,2.6294,2.6427,2.6365,2.641,2.6436,2.6441,2.6453,2.6393,2.6493,2.6665,2.6684,2.6462,2.646,2.6458,0,2.5624,2.5762,2.5873,2.591,2.5999,2.605,2.609,2.6155,2.6207,2.628,2.6314,2.6397,2.6442,2.6506,2.6534,2.6494,2.6666,2.6616,2.6684,2.6684,2.6722,2.6719,2.6903,2.6749,2.6749,2.6748,2.6748,0,2.5771,2.5866,2.5915,2.5983,2.6089,2.6115,2.622,2.6257,2.6315,2.6391,2.6394,2.6464,2.6497,2.6572,2.6595,2.6702,2.6722,2.674,2.6746,2.6741,2.6739,2.6771,2.6763,2.6754,2.6752,2.6751,2.675,0,2.5892,2.5929,2.6049,2.6124,2.6144,2.6219,2.6283,2.6349,2.638,2.6475,2.6499,2.6549,2.6637,2.6672,2.678,2.6795,2.6919,2.6916,2.6896,2.6897,2.6964,2.6958,2.7176,2.7206,2.7032,2.7033,2.7035,0,2.5984,2.6057,2.6139,2.619,2.6231,2.6312,2.6365,2.6393,2.6449,2.6532,2.6588,2.6676,2.6749,2.689,2.6936,2.7018,2.7018,2.7089,2.7031,2.7024,2.702,2.7016,2.7023,2.71,2.7102,2.7103,2.7105,0,2.6143,2.6157,2.6234,2.6317,2.638,2.6447,2.6512,2.6553,2.659,2.6652,2.6743,2.6799,2.691,2.6997,2.7082,2.7122,2.712,2.7122,2.7143,2.7139,2.7125,2.7134,2.6926,2.7118,2.7116,2.7115,2.7115,2.7114,2.6253,2.6318,2.6386,2.6471,2.6522,2.6582,2.6648,2.6688,2.6764,2.6856,2.6868,2.6965,2.7032,2.7146,2.7189,2.7266,2.7247,2.7277,2.7284,2.7291,2.7296,2.7112,2.7281,2.7281,2.7281,2.728,2.728,0,2.6413,2.6456,2.6534,2.6624,2.6691,2.6683,2.6754,2.681,2.6896,2.6958,2.703,2.7134,2.7219,2.7271,2.7356,2.7407,2.7408,2.7429,2.7426,2.7435,2.7308,2.7282,2.7426,2.7426,2.7426,2.7426,2.7426,2.7426,2.6504,2.6613,2.6635,2.677,2.6812,2.6908,2.695,2.7005,2.7055,2.7171,2.7242,2.7275,2.7333,2.7423,2.75,2.7513,2.7545,2.7567,2.7578,2.7459,2.7444,2.7429,2.7405,2.7573,2.7574,2.7699,2.7701,2.7701]}]]